Weather History for Columbus AFB, MS

Change the Weather History Date:

Monday, January 20, 2014

  Actual Average Record
Temperature  
Mean Temperature 45 °F -  
Max Temperature 66 °F 52 °F 71 °F (1999)
Min Temperature 24 °F 32 °F 16 °F (2008)
Degree Days  
Heating Degree Days 20    
Moisture  
Dew Point 25 °F    
Average Humidity 53    
Maximum Humidity 87    
Minimum Humidity 18    
Precipitation  
Precipitation 0.00 in - - ()
Sea Level Pressure  
Sea Level Pressure 30.00 in    
Wind  
Wind Speed 5 mph (South)    
Max Wind Speed 10 mph    
Max Gust Speed -    
Visibility 10 miles    
Events      
Averages and records for this station are not official NWS values.
T = Trace of Precipitation, MM = Missing Value Source: NWS Daily Summary

Daily Weather History Graph

Daily Weather History Graph

Search for Another Location

Airport:

Trip Planner

Search our weather history database for the weather conditions in past years. The results will help you decide how hot, cold, wet, or windy it might be!

Date:

Astronomy

Jan. 20, 2014 Rise Set
Actual Time 6:56 AM CST 5:13 PM CST
Civil Twilight 6:29 AM CST 5:40 PM CST
Nautical Twilight 5:59 AM CST 6:10 PM CST
Astronomical Twilight 5:29 AM CST 6:40 PM CST
Moon 9:32 PM CST (1/20) 9:10 AM CST (1/20)
Length of Visible Light 11h 10m
Length of Day
10h 16m
Waning Gibbous, 82% of the Moon is Illuminated
Jan 20
Waning Gibbous
Jan 23
Last Quarter
Jan 30
New
Feb 6
First Quarter
Feb 14
Full

Hourly Weather History & Observations

Time (CST) Temp. Windchill Dew Point Humidity Pressure Visibility Wind Dir Wind Speed Gust Speed Precip Events Conditions
12:58 AM 28.6 °F 23.5 °F 24.4 °F 84% 30.09 in 10.0 mi SSE 4.6 mph - N/A   Clear
1:58 AM 28.4 °F 22.2 °F 24.3 °F 84% 30.07 in 10.0 mi SSE 5.8 mph - N/A   Clear
2:58 AM 26.6 °F - 23.2 °F 87% 30.06 in 10.0 mi SSE 2.3 mph - N/A   Clear
3:58 AM 26.6 °F - 22.5 °F 84% 30.06 in 10.0 mi South 1.2 mph - N/A   Clear
4:58 AM 26.2 °F 20.7 °F 22.3 °F 85% 30.06 in 10.0 mi SSE 4.6 mph - N/A   Clear
5:58 AM 25.7 °F 21.5 °F 21.9 °F 86% 30.06 in 10.0 mi ESE 3.5 mph - N/A   Clear
6:58 AM 24.3 °F - 20.8 °F 87% 30.07 in 10.0 mi South 1.2 mph - N/A   Clear
7:58 AM 29.5 °F - 25.0 °F 83% 30.09 in 10.0 mi South 2.3 mph - N/A   Clear
8:58 AM 41.7 °F 39.8 °F 29.8 °F 63% 30.09 in 10.0 mi South 3.5 mph - N/A   Clear
9:58 AM 51.8 °F - 27.3 °F 39% 30.09 in 10.0 mi SW 5.8 mph - N/A   Clear
10:58 AM 57.4 °F - 28.0 °F 33% 30.07 in 10.0 mi SW 8.1 mph - N/A   Clear
11:58 AM 61.3 °F - 25.7 °F 26% 30.02 in 10.0 mi South 8.1 mph - N/A   Clear
12:58 PM 64.0 °F - 24.3 °F 22% 29.98 in 10.0 mi SSW 6.9 mph - N/A   Clear
1:58 PM 66.0 °F - 21.9 °F 19% 29.95 in 10.0 mi SW 6.9 mph - N/A   Clear
2:58 PM 66.7 °F - 22.3 °F 18% 29.93 in 10.0 mi South 10.4 mph - N/A   Clear
3:58 PM 65.3 °F - 23.5 °F 20% 29.93 in 10.0 mi South 6.9 mph - N/A   Clear
4:58 PM 61.0 °F - 23.4 °F 24% 29.94 in 10.0 mi SSE 4.6 mph - N/A   Clear
5:58 PM 48.7 °F - 26.6 °F 42% 29.93 in 10.0 mi SSE 6.9 mph - N/A   Clear
6:58 PM 48.6 °F - 27.0 °F 43% 29.93 in 10.0 mi SSE 5.8 mph - N/A   Clear
7:58 PM 44.8 °F 42.4 °F 27.0 °F 50% 29.93 in 10.0 mi South 4.6 mph - N/A   Clear
8:58 PM 47.8 °F - 27.0 °F 44% 29.91 in 10.0 mi South 5.8 mph - N/A   Clear
9:58 PM 45.5 °F 43.2 °F 26.6 °F 48% 29.93 in 10.0 mi SSW 4.6 mph - N/A   Clear
10:58 PM 42.4 °F 39.6 °F 29.3 °F 60% 29.92 in 10.0 mi South 4.6 mph - N/A   Scattered Clouds
11:58 PM 47.5 °F - 29.3 °F 49% 29.88 in 10.0 mi SSW 5.8 mph - N/A   Overcast